Regional Weather Roundup
Issued by NWS

Home | Current Version | Previous Version | Graphics & Text | Print | Product List | Glossary On
Versions: 1 2 3 4 5 6 7 8 9 10 11 12 13 14 15 16 17 18 19 20 21 22 23 24 25 26 27 28 29 30 31 32 33 34 35 36 37 38 39 40 41 42 43 44 45 46 47 48 49 50
000
ASUS45 KABQ 301601
RWRNM
NEW MEXICO REGIONAL WEATHER ROUNDUP
NATIONAL WEATHER SERVICE ALBUQUERQUE NM
1000 AM MDT SUN APR 30 2017

NOTE: "FAIR" MEANS FEW OR NO CLOUDS BELOW 12,000 FEET AGL WITH NO
       SIGNIFICANT WEATHER OR OBSTRUCTIONS TO VISION.

      THIS PRODUCT IS RELEASED AS TWO VERSIONS.  ONE VERSION NEAR
      THE TOP OF THE HOUR CONTAINING PRELIMINARY DATA FROM ALBUQUERQUE
      AND OTHER STATIONS.  A FINAL VERSION WITH ADDITIONAL DATA IS
      ISSUED ABOUT 10 MINUTES AFTER THE HOUR.

NMZ501-503-504-510>518-301700-
NORTHWEST PLATEAU/NORTHCENTRAL MOUNTAINS

CITY           SKY/WX    TMP DP  RH WIND       PRES   REMARKS
FARMINGTON     FAIR      48  15  26 NW18G29   30.07F
LOS ALAMOS     FAIR      36  28  72 E3        30.04R
SANTA FE       FAIR      37  31  78 W7        30.03R WCI  32
TAOS             N/A     37  18  44 N8        30.03S WCI  31
ANGEL FIRE     FAIR      30  20  67 W5        29.97S WCI  25

$$
NMZ402-403-502-505>509-301700-
WESTCENTRAL MOUNTAINS/SOUTHWEST MOUNTAINS

CITY           SKY/WX    TMP DP  RH WIND       PRES   REMARKS
GALLUP         FAIR      46  17  31 NW17G24   30.17R
GRANTS         FAIR      46  20  36 NW24G35   30.14R
SILVER CITY    FAIR      53  19  26 W15G22    30.13S

$$
NMZ407-409-411-412-301700-
SOUTHERN DESERTS

CITY           SKY/WX    TMP DP  RH WIND       PRES   REMARKS
DEMING         FAIR      56  25  30 VRB3      30.11F
LAS CRUCES     FAIR      58  20  22 NW17G23   30.10F
HOLLOMAN AFB   FAIR      48  36  63 NE3       30.12S
ALAMOGORDO     FAIR      48  36  61 N3        30.10S
T OR C         FAIR      57  19  22 NW17G25   30.07S

$$
NMZ519>523-301700-
CENTRAL VALLEYS/CENTRAL HIGHLANDS

CITY           SKY/WX    TMP DP  RH WIND       PRES   REMARKS
ALBUQUERQUE    FAIR      44  31  60 N7        30.10R
DOUBLE EAGLE   MOSUNNY   45  28  53 NW15      30.09R
MORIARTY ARPT  FAIR      44  31  60 NW18      30.02S
CLINES CORNERS FAIR      35  28  75 NW31      29.98S WCI  22
BELEN          FAIR      46  35  66 N3        30.09R
SOCORRO        FAIR      53  25  34 N16G25    30.07S

$$
NMZ524>526-539-540-301700-
SOUTHCENTRAL MOUNTAINS

CITY           SKY/WX    TMP DP  RH WIND       PRES   REMARKS
RUIDOSO        NOT AVBL

$$
NMZ527>531-301700-
NORTHEAST HIGHLANDS/NORTHEAST PLAINS

CITY           SKY/WX    TMP DP  RH WIND       PRES   REMARKS
LAS VEGAS      FAIR      32  22  66 E6        29.95R WCI  26
RATON          FAIR      38  16  40 N20G26    29.92R WCI  28
CLAYTON        LGT RAIN  33  27  78 N28G37    29.82R WCI  20

$$
NMZ532>537-301700-
EASTCENTRAL PLAINS

CITY           SKY/WX    TMP DP  RH WIND       PRES   REMARKS
SANTA ROSA     FAIR      42  36  78 N7        29.96S
TUCUMCARI      FAIR      41  35  79 W14       29.94S
CANNON AFB     FAIR      44  30  57 W15G24    29.97R
CLOVIS AIRPORT FAIR      46  27  46 NW25G35   29.96R

$$
NMZ028-029-538-301700-
SOUTHEAST PLAINS

CITY           SKY/WX    TMP DP  RH WIND       PRES   REMARKS
ROSWELL        FAIR      51  34  52 S5        30.01S
ARTESIA        FAIR      54  37  54 SE13      30.00F
CARLSBAD       FAIR      54  37  52 MISG      30.00S
HOBBS          SUNNY     48  32  53 W9        30.03R


$$



USA.gov is the U.S. government's official web portal to all federal, state and local government web resources and services.